PUA9534 SBPS-SUMU

Flight info

Callsign PUA9534
Flight time N/A
Altitude 36000
Route MUDSA UM661 TOSIB
Aircraft A320/M-SDE3FGHIRWY/LB1

Departure

Time N/A
Airport Porto Seguro International Airport (SBPS)

Arrival

Time 2026-04-30 08:17
Airport Carrasco General Cesáreo L. Berisso International Airport (SUMU)
Time Latitude Longitude Altitude Speed Heading
2026-04-30 05:47 -31.53735 -51.53774 36077 ft 380 kts 234°
2026-04-30 05:47 -31.55508 -51.56069 36073 ft 380 kts 234°
2026-04-30 05:48 -31.59054 -51.60662 36078 ft 379 kts 233°
2026-04-30 05:48 -31.62593 -51.65246 36078 ft 378 kts 233°
2026-04-30 05:49 -31.66125 -51.69827 36077 ft 378 kts 233°
2026-04-30 05:49 -31.69647 -51.74407 36076 ft 377 kts 233°
2026-04-30 05:50 -31.73167 -51.78981 36073 ft 377 kts 233°
2026-04-30 05:50 -31.76674 -51.83551 36075 ft 376 kts 233°
2026-04-30 05:51 -31.80153 -51.88097 36074 ft 376 kts 233°
2026-04-30 05:51 -31.83646 -51.92671 36070 ft 376 kts 233°
2026-04-30 05:52 -31.87146 -51.97246 36069 ft 375 kts 233°
2026-04-30 05:52 -31.90640 -52.01808 36069 ft 375 kts 233°
2026-04-30 05:53 -31.94120 -52.06374 36068 ft 375 kts 233°
2026-04-30 05:53 -31.97599 -52.10946 36066 ft 374 kts 233°
2026-04-30 05:54 -32.01075 -52.15518 36065 ft 374 kts 233°
2026-04-30 05:54 -32.04530 -52.20057 36063 ft 374 kts 233°
2026-04-30 05:55 -32.08003 -52.24634 36064 ft 374 kts 233°
2026-04-30 05:55 -32.11473 -52.29211 36063 ft 374 kts 233°
2026-04-30 05:56 -32.14936 -52.33785 36066 ft 374 kts 233°
2026-04-30 05:56 -32.18399 -52.38363 36065 ft 373 kts 233°
2026-04-30 05:57 -32.21835 -52.42908 36067 ft 373 kts 233°
2026-04-30 05:57 -32.25290 -52.47484 36071 ft 373 kts 233°
2026-04-30 05:58 -32.28736 -52.52067 36065 ft 373 kts 233°
2026-04-30 05:58 -32.32157 -52.56614 36068 ft 372 kts 233°
2026-04-30 05:59 -32.35597 -52.61188 36066 ft 372 kts 233°
2026-04-30 05:59 -32.39032 -52.65764 36067 ft 372 kts 233°
2026-04-30 06:00 -32.42479 -52.70324 36070 ft 372 kts 232°
2026-04-30 06:00 -32.46026 -52.74783 36070 ft 372 kts 231°
2026-04-30 06:01 -32.49597 -52.79219 36072 ft 372 kts 231°
2026-04-30 06:01 -32.53146 -52.83668 36070 ft 371 kts 231°
2026-04-30 06:02 -32.56674 -52.88130 36066 ft 370 kts 231°
2026-04-30 06:02 -32.60196 -52.92587 36076 ft 370 kts 231°
2026-04-30 06:03 -32.63688 -52.97013 36070 ft 370 kts 231°
2026-04-30 06:03 -32.67203 -53.01475 36064 ft 370 kts 231°
2026-04-30 06:04 -32.68947 -53.03685 36051 ft 359 kts 231°
2026-04-30 06:04 -32.70621 -53.05795 36057 ft 343 kts 231°
2026-04-30 06:04 -32.72220 -53.07812 36050 ft 328 kts 232°
2026-04-30 06:05 -32.74354 -53.12163 36054 ft 298 kts 258°
2026-04-30 06:05 -32.74402 -53.14627 36054 ft 303 kts 273°
2026-04-30 06:05 -32.73734 -53.17041 36055 ft 317 kts 290°
2026-04-30 06:05 -32.72303 -53.19143 36054 ft 342 kts 309°
2026-04-30 06:06 -32.70132 -53.20551 36053 ft 375 kts 332°
2026-04-30 06:06 -32.67417 -53.20827 36053 ft 411 kts 357°
2026-04-30 06:06 -32.64599 -53.19771 36054 ft 441 kts 21°
2026-04-30 06:06 -32.62034 -53.17648 36061 ft 457 kts 36°
2026-04-30 06:07 -32.59781 -53.14940 36058 ft 464 kts 45°
2026-04-30 06:07 -32.56261 -53.08566 36038 ft 470 kts 75°
2026-04-30 06:07 -32.55820 -53.04794 36031 ft 458 kts 100°
2026-04-30 06:08 -32.56501 -53.01206 36059 ft 439 kts 125°
2026-04-30 06:08 -32.58136 -52.98317 36061 ft 409 kts 150°
2026-04-30 06:08 -32.60384 -52.96548 36058 ft 371 kts 175°
2026-04-30 06:08 -32.62780 -52.96105 36059 ft 333 kts 200°
2026-04-30 06:09 -32.64842 -52.96939 36055 ft 302 kts 225°
2026-04-30 06:09 -32.66291 -52.98665 36057 ft 294 kts 237°
2026-04-30 06:09 -32.67495 -53.00635 36054 ft 295 kts 239°
2026-04-30 06:09 -32.68672 -53.02631 36053 ft 296 kts 238°
2026-04-30 06:10 -32.69890 -53.04559 36053 ft 297 kts 236°
2026-04-30 06:10 -32.71200 -53.06458 36055 ft 298 kts 234°
2026-04-30 06:10 -32.72569 -53.08307 36051 ft 298 kts 233°
2026-04-30 06:10 -32.73733 -53.10301 36047 ft 292 kts 248°
2026-04-30 06:11 -32.74185 -53.12642 36041 ft 294 kts 266°
2026-04-30 06:11 -32.73819 -53.15059 36043 ft 307 kts 285°
2026-04-30 06:11 -32.72578 -53.17217 36034 ft 332 kts 307°
2026-04-30 06:11 -32.70484 -53.18643 36037 ft 370 kts 332°
2026-04-30 06:12 -32.67838 -53.18933 36054 ft 408 kts 356°
2026-04-30 06:12 -32.65032 -53.17914 36057 ft 439 kts 21°
2026-04-30 06:12 -32.62533 -53.15694 36060 ft 458 kts 40°
2026-04-30 06:13 -32.58738 -53.09515 36046 ft 470 kts 69°
2026-04-30 06:13 -32.58001 -53.05771 36058 ft 465 kts 93°
2026-04-30 06:13 -32.58388 -53.02057 36058 ft 447 kts 118°
2026-04-30 06:13 -32.59794 -52.98914 36058 ft 418 kts 143°
2026-04-30 06:14 -32.61911 -52.96807 36050 ft 379 kts 168°
2026-04-30 06:14 -32.64293 -52.96004 36052 ft 340 kts 193°
2026-04-30 06:14 -32.66476 -52.96516 36052 ft 308 kts 218°
2026-04-30 06:14 -32.68013 -52.98117 36055 ft 290 kts 242°
2026-04-30 06:15 -32.68960 -53.00234 36057 ft 292 kts 245°
2026-04-30 06:15 -32.69877 -53.02388 36053 ft 293 kts 245°
2026-04-30 06:15 -32.70794 -53.04546 36054 ft 293 kts 245°
2026-04-30 06:15 -32.71714 -53.06712 36054 ft 293 kts 245°
2026-04-30 06:16 -32.72775 -53.08786 36056 ft 295 kts 239°
2026-04-30 06:16 -32.73759 -53.10906 36054 ft 293 kts 251°
2026-04-30 06:16 -32.74079 -53.13283 36048 ft 296 kts 270°
2026-04-30 06:16 -32.73496 -53.15672 36042 ft 313 kts 291°
2026-04-30 06:17 -32.71963 -53.17635 36031 ft 343 kts 315°
2026-04-30 06:17 -32.69616 -53.18683 36049 ft 383 kts 341°
2026-04-30 06:17 -32.66839 -53.18498 36054 ft 420 kts
2026-04-30 06:17 -32.64120 -53.16986 36058 ft 447 kts 30°
2026-04-30 06:18 -32.61802 -53.14432 36065 ft 461 kts 45°
2026-04-30 06:18 -32.58516 -53.07881 36052 ft 468 kts 79°
2026-04-30 06:18 -32.58277 -53.04087 36056 ft 458 kts 104°
2026-04-30 06:19 -32.59141 -53.00564 36058 ft 435 kts 129°
2026-04-30 06:19 -32.60906 -52.97841 36060 ft 402 kts 154°
2026-04-30 06:19 -32.63202 -52.96291 36045 ft 361 kts 179°
2026-04-30 06:19 -32.65549 -52.96082 36054 ft 325 kts 204°
2026-04-30 06:20 -32.67497 -52.97120 36053 ft 298 kts 229°
2026-04-30 06:20 -32.68671 -52.99052 36063 ft 290 kts 246°
2026-04-30 06:20 -32.69541 -53.01220 36059 ft 292 kts 246°
2026-04-30 06:20 -32.70402 -53.03371 36055 ft 293 kts 246°
2026-04-30 06:21 -32.71275 -53.05556 36056 ft 293 kts 246°
2026-04-30 06:21 -32.72181 -53.07720 36056 ft 294 kts 240°
2026-04-30 06:21 -32.73309 -53.09751 36053 ft 294 kts 244°
2026-04-30 06:21 -32.74016 -53.12004 36051 ft 293 kts 260°
2026-04-30 06:22 -32.73918 -53.14431 36045 ft 303 kts 280°
2026-04-30 06:22 -32.72876 -53.16675 36037 ft 326 kts 302°
2026-04-30 06:22 -32.70927 -53.18255 36028 ft 360 kts 328°
2026-04-30 06:22 -32.68361 -53.18738 36057 ft 400 kts 352°
2026-04-30 06:23 -32.65556 -53.17927 36058 ft 433 kts 17°
2026-04-30 06:23 -32.63013 -53.15863 36063 ft 454 kts 38°
2026-04-30 06:23 -32.60892 -53.13032 36063 ft 463 kts 49°
2026-04-30 06:23 -32.59133 -53.09812 36044 ft 468 kts 66°
2026-04-30 06:24 -32.58294 -53.06108 36058 ft 464 kts 91°
2026-04-30 06:24 -32.58582 -53.02374 36058 ft 448 kts 116°
2026-04-30 06:24 -32.59904 -52.99169 36058 ft 421 kts 141°
2026-04-30 06:24 -32.61973 -52.96961 36053 ft 383 kts 166°
2026-04-30 06:25 -32.64351 -52.96035 36044 ft 342 kts 191°
2026-04-30 06:25 -32.66565 -52.96438 36055 ft 310 kts 216°
2026-04-30 06:25 -32.68168 -52.97958 36056 ft 290 kts 241°
2026-04-30 06:25 -32.69086 -53.00049 36058 ft 291 kts 246°
2026-04-30 06:26 -32.69953 -53.02224 36057 ft 292 kts 246°
2026-04-30 06:26 -32.70822 -53.04406 36058 ft 293 kts 246°
2026-04-30 06:26 -32.71691 -53.06592 36056 ft 293 kts 246°
2026-04-30 06:26 -32.72724 -53.08684 36056 ft 295 kts 239°
2026-04-30 06:27 -32.73726 -53.10786 36052 ft 292 kts 251°
2026-04-30 06:27 -32.74085 -53.13150 36050 ft 295 kts 269°
2026-04-30 06:27 -32.73549 -53.15541 36044 ft 311 kts 290°
2026-04-30 06:27 -32.72064 -53.17531 36033 ft 340 kts 314°
2026-04-30 06:28 -32.70583 -53.18391 36032 ft 365 kts 332°
2026-04-30 06:28 -32.67962 -53.18680 36058 ft 405 kts 356°
2026-04-30 06:28 -32.65181 -53.17661 36059 ft 436 kts 21°
2026-04-30 06:28 -32.62708 -53.15449 36061 ft 455 kts 40°
2026-04-30 06:29 -32.60637 -53.12565 36062 ft 463 kts 50°
2026-04-30 06:29 -32.58960 -53.09288 36045 ft 467 kts 69°
2026-04-30 06:29 -32.58273 -53.05559 36061 ft 462 kts 94°
2026-04-30 06:29 -32.58708 -53.01870 36057 ft 445 kts 119°
2026-04-30 06:30 -32.60152 -52.98777 36060 ft 416 kts 144°
2026-04-30 06:30 -32.62296 -52.96729 36055 ft 378 kts 169°
2026-04-30 06:30 -32.64680 -52.95989 36045 ft 337 kts 195°
2026-04-30 06:30 -32.66834 -52.96563 36056 ft 306 kts 220°
2026-04-30 06:31 -32.68323 -52.98209 36059 ft 289 kts 244°
2026-04-30 06:31 -32.69214 -53.00350 36060 ft 291 kts 246°
2026-04-30 06:31 -32.70077 -53.02527 36058 ft 292 kts 246°
2026-04-30 06:31 -32.70939 -53.04707 36057 ft 292 kts 246°
2026-04-30 06:32 -32.71804 -53.06893 36055 ft 293 kts 245°
2026-04-30 06:32 -32.72870 -53.08959 36057 ft 295 kts 239°
2026-04-30 06:32 -32.73810 -53.11096 36055 ft 292 kts 253°
2026-04-30 06:32 -32.74065 -53.13421 36051 ft 296 kts 271°
2026-04-30 06:33 -32.73396 -53.15837 36042 ft 314 kts 294°
2026-04-30 06:33 -32.71786 -53.17726 36031 ft 344 kts 318°
2026-04-30 06:33 -32.69401 -53.18653 36050 ft 384 kts 343°
2026-04-30 06:33 -32.66630 -53.18326 36057 ft 420 kts
2026-04-30 06:34 -32.63964 -53.16684 36060 ft 446 kts 31°
2026-04-30 06:34 -32.61699 -53.14088 36060 ft 459 kts 46°
2026-04-30 06:34 -32.59772 -53.11038 36060 ft 465 kts 56°
2026-04-30 06:34 -32.58512 -53.07524 36051 ft 465 kts 81°
2026-04-30 06:35 -32.58356 -53.03744 36060 ft 455 kts 106°
2026-04-30 06:35 -32.59296 -53.00275 36055 ft 432 kts 131°
2026-04-30 06:35 -32.61117 -52.97637 36055 ft 399 kts 156°
2026-04-30 06:35 -32.63434 -52.96194 36049 ft 358 kts 181°
2026-04-30 06:36 -32.65737 -52.96085 36055 ft 322 kts 206°
2026-04-30 06:36 -32.67654 -52.97217 36057 ft 295 kts 232°
2026-04-30 06:36 -32.68755 -52.99166 36063 ft 289 kts 247°
2026-04-30 06:36 -32.69608 -53.01337 36058 ft 291 kts 246°
2026-04-30 06:37 -32.70464 -53.03516 36057 ft 292 kts 246°
2026-04-30 06:37 -32.71320 -53.05702 36058 ft 292 kts 246°
2026-04-30 06:37 -32.72244 -53.07855 36056 ft 294 kts 239°
2026-04-30 06:37 -32.73384 -53.09871 36053 ft 293 kts 245°
2026-04-30 06:38 -32.74044 -53.12134 36054 ft 292 kts 261°
2026-04-30 06:38 -32.73885 -53.14551 36046 ft 302 kts 281°
2026-04-30 06:38 -32.72794 -53.16760 36038 ft 325 kts 304°
2026-04-30 06:38 -32.70815 -53.18275 36027 ft 359 kts 329°
2026-04-30 06:39 -32.68208 -53.18669 36057 ft 400 kts 354°
2026-04-30 06:39 -32.65435 -53.17749 36061 ft 432 kts 19°
2026-04-30 06:39 -32.62938 -53.15624 36065 ft 452 kts 39°
2026-04-30 06:40 -32.59096 -53.09590 36046 ft 466 kts 66°
2026-04-30 06:40 -32.58295 -53.05904 36063 ft 462 kts 91°
2026-04-30 06:40 -32.58617 -53.02189 36057 ft 446 kts 116°
2026-04-30 06:40 -32.59968 -52.99024 36059 ft 419 kts 142°
2026-04-30 06:41 -32.62056 -52.96864 36054 ft 382 kts 167°
2026-04-30 06:41 -32.64439 -52.95991 36043 ft 340 kts 192°
2026-04-30 06:41 -32.66635 -52.96445 36057 ft 309 kts 217°
2026-04-30 06:41 -32.68200 -52.98001 36056 ft 289 kts 242°
2026-04-30 06:42 -32.69110 -53.00121 36059 ft 290 kts 246°
2026-04-30 06:42 -32.69972 -53.02296 36060 ft 291 kts 246°
2026-04-30 06:42 -32.70821 -53.04444 36058 ft 292 kts 246°
2026-04-30 06:42 -32.71684 -53.06627 36054 ft 292 kts 246°
2026-04-30 06:43 -32.72736 -53.08698 36056 ft 295 kts 238°
2026-04-30 06:43 -32.73742 -53.10795 36054 ft 291 kts 251°
2026-04-30 06:43 -32.74093 -53.13156 36054 ft 294 kts 269°
2026-04-30 06:43 -32.73547 -53.15538 36043 ft 310 kts 291°
2026-04-30 06:44 -32.72062 -53.17509 36036 ft 339 kts 315°
2026-04-30 06:44 -32.69774 -53.18581 36035 ft 376 kts 340°
2026-04-30 06:44 -32.67042 -53.18418 36058 ft 414 kts
2026-04-30 06:44 -32.64351 -53.16935 36060 ft 441 kts 28°
2026-04-30 06:45 -32.62034 -53.14456 36064 ft 456 kts 44°
2026-04-30 06:45 -32.58636 -53.08064 36051 ft 464 kts 77°
2026-04-30 06:45 -32.58298 -53.04305 36058 ft 456 kts 102°
2026-04-30 06:46 -32.59070 -53.00757 36054 ft 435 kts 127°
2026-04-30 06:46 -32.60772 -52.97962 36055 ft 404 kts 152°
2026-04-30 06:46 -32.63043 -52.96317 36054 ft 365 kts 177°
2026-04-30 06:46 -32.65373 -52.95999 36046 ft 326 kts 202°
2026-04-30 06:47 -32.67363 -52.96933 36058 ft 298 kts 227°
2026-04-30 06:47 -32.68595 -52.98806 36062 ft 288 kts 246°
2026-04-30 06:47 -32.69448 -53.00968 36058 ft 290 kts 246°
2026-04-30 06:47 -32.70303 -53.03144 36057 ft 291 kts 246°
2026-04-30 06:48 -32.71158 -53.05327 36057 ft 292 kts 247°
2026-04-30 06:48 -32.72041 -53.07497 36058 ft 293 kts 241°
2026-04-30 06:48 -32.73189 -53.09504 36056 ft 293 kts 242°
2026-04-30 06:48 -32.73973 -53.11714 36055 ft 291 kts 258°
2026-04-30 06:49 -32.73981 -53.14123 36049 ft 298 kts 278°
2026-04-30 06:49 -32.73062 -53.16389 36042 ft 319 kts 300°
2026-04-30 06:49 -32.71234 -53.18058 36031 ft 351 kts 325°
2026-04-30 06:49 -32.68722 -53.18662 36052 ft 391 kts 350°
2026-04-30 06:50 -32.65956 -53.17972 36056 ft 425 kts 15°
2026-04-30 06:50 -32.63402 -53.16031 36064 ft 448 kts 36°
2026-04-30 06:50 -32.61245 -53.13309 36064 ft 458 kts 47°
2026-04-30 06:50 -32.59403 -53.10203 36051 ft 464 kts 61°
2026-04-30 06:51 -32.58385 -53.06601 36058 ft 462 kts 86°
2026-04-30 06:51 -32.58486 -53.02854 36055 ft 449 kts 111°
2026-04-30 06:51 -32.59631 -52.99582 36058 ft 425 kts 136°
2026-04-30 06:51 -32.61599 -52.97184 36059 ft 390 kts 161°
2026-04-30 06:52 -32.63959 -52.96036 36048 ft 349 kts 187°
2026-04-30 06:52 -32.66229 -52.96225 36056 ft 314 kts 212°
2026-04-30 06:52 -32.67957 -52.97583 36060 ft 291 kts 237°
2026-04-30 06:52 -32.68937 -52.99649 36059 ft 289 kts 247°
2026-04-30 06:53 -32.69789 -53.01818 36058 ft 290 kts 247°
2026-04-30 06:53 -32.70642 -53.03995 36059 ft 291 kts 247°
2026-04-30 06:53 -32.71496 -53.06178 36057 ft 291 kts 247°
2026-04-30 06:53 -32.72469 -53.08290 36058 ft 294 kts 238°
2026-04-30 06:54 -32.73551 -53.10340 36054 ft 291 kts 248°
2026-04-30 06:54 -32.74066 -53.12651 36053 ft 292 kts 265°
2026-04-30 06:54 -32.73717 -53.15044 36046 ft 304 kts 286°
2026-04-30 06:54 -32.72426 -53.17128 36038 ft 330 kts 310°
2026-04-30 06:55 -32.70289 -53.18409 36036 ft 366 kts 335°
2026-04-30 06:55 -32.67660 -53.18510 36058 ft 405 kts
2026-04-30 06:55 -32.64903 -53.17272 36057 ft 435 kts 25°
2026-04-30 06:55 -32.62545 -53.14988 36066 ft 452 kts 41°
2026-04-30 06:56 -32.60520 -53.12103 36062 ft 459 kts 50°
2026-04-30 06:56 -32.58912 -53.08824 36052 ft 463 kts 71°
2026-04-30 06:56 -32.58324 -53.05104 36063 ft 458 kts 96°
2026-04-30 06:56 -32.58857 -53.01466 36056 ft 440 kts 121°
2026-04-30 06:57 -32.60379 -52.98472 36060 ft 412 kts 146°
2026-04-30 06:57 -32.62564 -52.96552 36054 ft 374 kts 172°
2026-04-30 06:57 -32.64944 -52.95947 36047 ft 334 kts 197°
2026-04-30 06:57 -32.67050 -52.96643 36055 ft 303 kts 222°
2026-04-30 06:58 -32.68448 -52.98368 36057 ft 287 kts 245°
2026-04-30 06:58 -32.69307 -53.00520 36057 ft 290 kts 247°
2026-04-30 06:58 -32.70150 -53.02697 36056 ft 291 kts 247°
2026-04-30 06:58 -32.70994 -53.04879 36055 ft 291 kts 247°
2026-04-30 06:59 -32.71846 -53.07063 36056 ft 292 kts 244°
2026-04-30 06:59 -32.72975 -53.09074 36056 ft 294 kts 240°
2026-04-30 06:59 -32.73881 -53.11218 36053 ft 290 kts 255°
2026-04-30 06:59 -32.74054 -53.13600 36051 ft 295 kts 274°
2026-04-30 07:00 -32.73323 -53.15921 36043 ft 312 kts 295°
2026-04-30 07:00 -32.71688 -53.17753 36034 ft 342 kts 319°
2026-04-30 07:00 -32.69304 -53.18609 36048 ft 381 kts 345°
2026-04-30 07:00 -32.66565 -53.18200 36058 ft 417 kts 10°
2026-04-30 07:01 -32.63948 -53.16503 36066 ft 442 kts 32°
2026-04-30 07:01 -32.61711 -53.13926 36073 ft 454 kts 45°
2026-04-30 07:01 -32.59788 -53.10923 36056 ft 460 kts 55°
2026-04-30 07:01 -32.58526 -53.07446 36062 ft 462 kts 81°
2026-04-30 07:02 -32.58364 -53.03690 36060 ft 453 kts 105°
2026-04-30 07:02 -32.59299 -53.00236 36060 ft 430 kts 131°
2026-04-30 07:02 -32.61119 -52.97610 36051 ft 398 kts 156°
2026-04-30 07:02 -32.63433 -52.96178 36052 ft 357 kts 181°
2026-04-30 07:03 -32.65762 -52.96087 36058 ft 321 kts 207°
2026-04-30 07:03 -32.67641 -52.97221 36053 ft 294 kts 232°
2026-04-30 07:03 -32.68742 -52.99194 36066 ft 288 kts 247°
2026-04-30 07:03 -32.69582 -53.01323 36060 ft 290 kts 247°
2026-04-30 07:04 -32.70438 -53.03493 36057 ft 290 kts 247°
2026-04-30 07:04 -32.71294 -53.05668 36059 ft 291 kts 247°
2026-04-30 07:04 -32.72202 -53.07816 36056 ft 292 kts 240°
2026-04-30 07:04 -32.73331 -53.09830 36052 ft 292 kts 244°
2026-04-30 07:05 -32.73895 -53.14471 36050 ft 299 kts 281°
2026-04-30 07:05 -32.72830 -53.16662 36039 ft 321 kts 304°
2026-04-30 07:05 -32.70888 -53.18174 36030 ft 354 kts 329°
2026-04-30 07:06 -32.68320 -53.18568 36056 ft 394 kts 354°
2026-04-30 07:06 -32.65584 -53.17650 36060 ft 427 kts 19°
2026-04-30 07:06 -32.63107 -53.15555 36052 ft 447 kts 38°
2026-04-30 07:06 -32.61008 -53.12773 36065 ft 456 kts 48°
2026-04-30 07:07 -32.59267 -53.09669 36047 ft 461 kts 64°
2026-04-30 07:07 -32.58408 -53.06030 36060 ft 459 kts 90°
2026-04-30 07:07 -32.58670 -53.02328 36058 ft 445 kts 115°
2026-04-30 07:07 -32.59976 -52.99135 36059 ft 418 kts 140°
2026-04-30 07:08 -32.62037 -52.96933 36058 ft 383 kts 166°
2026-04-30 07:08 -32.64414 -52.96010 36044 ft 342 kts 191°
2026-04-30 07:08 -32.66624 -52.96415 36059 ft 309 kts 217°
2026-04-30 07:08 -32.68215 -52.97935 36056 ft 288 kts 242°
2026-04-30 07:09 -32.69122 -53.00044 36057 ft 288 kts 247°
2026-04-30 07:09 -32.69965 -53.02211 36057 ft 290 kts 247°
2026-04-30 07:09 -32.70810 -53.04388 36059 ft 290 kts 247°
2026-04-30 07:09 -32.71654 -53.06566 36056 ft 290 kts 247°
2026-04-30 07:10 -32.72691 -53.08635 36058 ft 293 kts 238°
2026-04-30 07:10 -32.73707 -53.10710 36052 ft 290 kts 251°
2026-04-30 07:10 -32.74079 -53.13047 36050 ft 292 kts 269°
2026-04-30 07:10 -32.73564 -53.15413 36046 ft 306 kts 290°
2026-04-30 07:11 -32.72146 -53.17357 36037 ft 333 kts 314°
2026-04-30 07:11 -32.69908 -53.18452 36036 ft 370 kts 340°
2026-04-30 07:11 -32.67215 -53.18318 36061 ft 408 kts
2026-04-30 07:11 -32.64546 -53.16868 36061 ft 436 kts 28°
2026-04-30 07:12 -32.62235 -53.14445 36062 ft 451 kts 43°
2026-04-30 07:12 -32.60259 -53.11528 36060 ft 457 kts 51°
2026-04-30 07:12 -32.58799 -53.08178 36051 ft 461 kts 75°
2026-04-30 07:12 -32.58405 -53.04439 36059 ft 454 kts 100°
2026-04-30 07:13 -32.59129 -53.00884 36060 ft 435 kts 126°
2026-04-30 07:13 -32.60799 -52.98058 36064 ft 405 kts 151°
2026-04-30 07:13 -32.63052 -52.96374 36053 ft 366 kts 176°
2026-04-30 07:13 -32.65415 -52.96016 36043 ft 326 kts 202°
2026-04-30 07:14 -32.67413 -52.96927 36056 ft 298 kts 227°
2026-04-30 07:14 -32.68651 -52.98786 36061 ft 286 kts 247°
2026-04-30 07:14 -32.69485 -53.00943 36057 ft 289 kts 248°
2026-04-30 07:14 -32.70319 -53.03117 36055 ft 290 kts 247°
2026-04-30 07:15 -32.71154 -53.05295 36060 ft 290 kts 247°
2026-04-30 07:15 -32.72020 -53.07462 36055 ft 291 kts 241°
2026-04-30 07:15 -32.73324 -53.09331 36053 ft 296 kts 234°
2026-04-30 07:15 -32.74324 -53.11354 36053 ft 287 kts 257°
2026-04-30 07:16 -32.74290 -53.13722 36051 ft 296 kts 280°
2026-04-30 07:16 -32.73343 -53.15950 36040 ft 313 kts 298°
2026-04-30 07:16 -32.71649 -53.17712 36031 ft 340 kts 320°
2026-04-30 07:16 -32.69280 -53.18550 36036 ft 378 kts 345°
2026-04-30 07:17 -32.66563 -53.18117 36061 ft 415 kts 10°
2026-04-30 07:17 -32.63967 -53.16417 36061 ft 439 kts 32°
2026-04-30 07:17 -32.59803 -53.10883 36056 ft 457 kts 54°
2026-04-30 07:18 -32.58527 -53.07434 36059 ft 460 kts 80°
2026-04-30 07:18 -32.58348 -53.03696 36057 ft 451 kts 105°
2026-04-30 07:18 -32.59269 -53.00248 36059 ft 429 kts 130°
2026-04-30 07:18 -32.60391 -52.98386 36055 ft 409 kts 147°
2026-04-30 07:19 -32.62587 -52.96519 36053 ft 372 kts 173°
2026-04-30 07:19 -32.65723 -52.96083 36045 ft 319 kts 207°
2026-04-30 07:19 -32.67038 -52.96711 36053 ft 301 kts 224°
2026-04-30 07:19 -32.68388 -52.98461 36064 ft 286 kts 246°
2026-04-30 07:20 -32.69251 -53.00596 36058 ft 288 kts 247°
2026-04-30 07:20 -32.70106 -53.02751 36058 ft 289 kts 247°
2026-04-30 07:20 -32.70964 -53.04915 36054 ft 289 kts 247°
2026-04-30 07:20 -32.71826 -53.07075 36059 ft 290 kts 244°
2026-04-30 07:21 -32.72937 -53.09087 36057 ft 292 kts 240°
2026-04-30 07:21 -32.73848 -53.11215 36057 ft 288 kts 254°
2026-04-30 07:21 -32.74035 -53.13573 36053 ft 293 kts 274°
2026-04-30 07:21 -32.73297 -53.15875 36041 ft 310 kts 296°
2026-04-30 07:22 -32.69308 -53.18468 36049 ft 378 kts 346°
2026-04-30 07:22 -32.66589 -53.18013 36057 ft 414 kts 11°
2026-04-30 07:22 -32.64010 -53.16290 36060 ft 439 kts 32°
2026-04-30 07:23 -32.61796 -53.13722 36060 ft 451 kts 45°
2026-04-30 07:23 -32.59885 -53.10751 36060 ft 457 kts 55°
2026-04-30 07:23 -32.58641 -53.07288 36059 ft 459 kts 81°
2026-04-30 07:23 -32.58500 -53.03551 36059 ft 450 kts 106°
2026-04-30 07:24 -32.59454 -53.00131 36064 ft 428 kts 131°
2026-04-30 07:24 -32.61290 -52.97539 36064 ft 396 kts 157°
2026-04-30 07:24 -32.63611 -52.96152 36048 ft 355 kts 182°
2026-04-30 07:24 -32.65927 -52.96108 36053 ft 319 kts 208°
2026-04-30 07:25 -32.67773 -52.97278 36054 ft 292 kts 233°
2026-04-30 07:25 -32.68830 -52.99263 36069 ft 286 kts 248°
2026-04-30 07:25 -32.69652 -53.01426 36058 ft 288 kts 248°
2026-04-30 07:25 -32.70473 -53.03594 36055 ft 289 kts 248°
2026-04-30 07:26 -32.71286 -53.05742 36056 ft 289 kts 248°
2026-04-30 07:26 -32.72200 -53.07868 36052 ft 291 kts 240°
2026-04-30 07:26 -32.73345 -53.09854 36051 ft 290 kts 245°
2026-04-30 07:26 -32.74020 -53.12083 36056 ft 288 kts 261°
2026-04-30 07:27 -32.73870 -53.14461 36049 ft 297 kts 282°
2026-04-30 07:27 -32.72793 -53.16622 36035 ft 319 kts 304°
2026-04-30 07:27 -32.70847 -53.18097 36031 ft 352 kts 330°
2026-04-30 07:27 -32.68291 -53.18444 36058 ft 392 kts 355°
2026-04-30 07:28 -32.65580 -53.17477 36055 ft 425 kts 20°
2026-04-30 07:28 -32.63206 -53.15264 36062 ft 447 kts 45°
2026-04-30 07:28 -32.61595 -53.12073 36060 ft 457 kts 71°
2026-04-30 07:28 -32.61030 -53.08384 36054 ft 454 kts 96°
2026-04-30 07:29 -32.61589 -53.04788 36061 ft 437 kts 122°
2026-04-30 07:29 -32.63133 -53.01837 36056 ft 408 kts 147°
2026-04-30 07:29 -32.65328 -52.99977 36059 ft 372 kts 173°
2026-04-30 07:29 -32.67715 -52.99431 36051 ft 332 kts 198°
2026-04-30 07:30 -32.71121 -53.01908 36063 ft 284 kts 246°
2026-04-30 07:30 -32.71978 -53.04037 36054 ft 287 kts 247°
2026-04-30 07:30 -32.72828 -53.06186 36051 ft 288 kts 247°
2026-04-30 07:31 -32.73681 -53.08350 36054 ft 292 kts 247°
2026-04-30 07:31 -32.74316 -53.09964 36062 ft 299 kts 247°
2026-04-30 07:31 -32.75318 -53.12148 36060 ft 312 kts 239°
2026-04-30 07:31 -32.76653 -53.14243 36061 ft 324 kts 235°
2026-04-30 07:32 -32.78173 -53.16281 36066 ft 335 kts 232°
2026-04-30 07:32 -32.81473 -53.20427 36066 ft 354 kts 232°
2026-04-30 07:33 -32.84886 -53.24834 36055 ft 369 kts 233°
2026-04-30 07:33 -32.88326 -53.29438 36059 ft 373 kts 233°
2026-04-30 07:34 -32.91734 -53.34062 36056 ft 374 kts 233°
2026-04-30 07:34 -32.95168 -53.38718 36057 ft 374 kts 233°
2026-04-30 07:35 -32.98608 -53.43368 36058 ft 374 kts 233°
2026-04-30 07:35 -33.02048 -53.48021 36060 ft 374 kts 233°
2026-04-30 07:36 -33.05480 -53.52683 36062 ft 374 kts 233°
2026-04-30 07:36 -33.08915 -53.57348 36065 ft 374 kts 233°
2026-04-30 07:37 -33.12344 -53.62012 36066 ft 374 kts 233°
2026-04-30 07:37 -33.15774 -53.66681 36068 ft 374 kts 233°
2026-04-30 07:38 -33.19206 -53.71349 36068 ft 374 kts 233°
2026-04-30 07:38 -33.22621 -53.76022 36069 ft 374 kts 233°
2026-04-30 07:39 -33.26041 -53.80698 36069 ft 373 kts 233°
2026-04-30 07:39 -33.29461 -53.85373 36071 ft 373 kts 233°
2026-04-30 07:40 -33.32876 -53.90050 36069 ft 373 kts 233°
2026-04-30 07:40 -33.36264 -53.94691 36073 ft 373 kts 233°
2026-04-30 07:41 -33.39661 -53.99374 36072 ft 372 kts 233°
2026-04-30 07:41 -33.43057 -54.04053 36071 ft 372 kts 233°
2026-04-30 07:42 -33.46456 -54.08734 36072 ft 372 kts 233°
2026-04-30 07:42 -33.49856 -54.13411 36073 ft 372 kts 233°
2026-04-30 07:43 -33.53245 -54.18088 36071 ft 372 kts 233°
2026-04-30 07:43 -33.56623 -54.22780 36073 ft 372 kts 233°
2026-04-30 07:44 -33.60001 -54.27476 36072 ft 371 kts 233°
2026-04-30 07:44 -33.63362 -54.32130 36078 ft 371 kts 233°
2026-04-30 07:45 -33.66748 -54.36813 36075 ft 371 kts 233°
2026-04-30 07:45 -33.70127 -54.41499 36076 ft 371 kts 233°
2026-04-30 07:46 -33.73497 -54.46196 36072 ft 371 kts 234°
2026-04-30 07:46 -33.76859 -54.50895 36073 ft 371 kts 234°
2026-04-30 07:46 -33.78546 -54.53245 35923 ft 371 kts 233°
2026-04-30 07:47 -33.80228 -54.55589 35521 ft 371 kts 233°
2026-04-30 07:47 -33.81915 -54.57946 34771 ft 371 kts 233°
2026-04-30 07:47 -33.83580 -54.60277 34081 ft 371 kts 233°
2026-04-30 07:47 -33.85262 -54.62632 33183 ft 372 kts 233°
2026-04-30 07:48 -33.86954 -54.65002 32283 ft 374 kts 232°
2026-04-30 07:48 -33.88661 -54.67392 31362 ft 377 kts 232°
2026-04-30 07:48 -33.90373 -54.69788 30453 ft 379 kts 232°
2026-04-30 07:48 -33.92096 -54.72207 29402 ft 382 kts 232°
2026-04-30 07:49 -33.93829 -54.74644 28459 ft 382 kts 232°
2026-04-30 07:49 -33.95536 -54.77044 27882 ft 373 kts 232°
2026-04-30 07:49 -33.97212 -54.79401 27261 ft 368 kts 232°
2026-04-30 07:49 -33.98864 -54.81721 26641 ft 362 kts 232°
2026-04-30 07:50 -34.00494 -54.84010 26040 ft 357 kts 232°
2026-04-30 07:50 -34.02105 -54.86271 25456 ft 353 kts 232°
2026-04-30 07:50 -34.03691 -54.88505 24875 ft 349 kts 232°
2026-04-30 07:50 -34.05237 -54.90687 24306 ft 345 kts 232°
2026-04-30 07:51 -34.06788 -54.92880 23739 ft 342 kts 232°
2026-04-30 07:51 -34.08324 -54.95053 23115 ft 338 kts 232°
2026-04-30 07:51 -34.09840 -54.97191 22588 ft 333 kts 232°
2026-04-30 07:51 -34.11340 -54.99313 22073 ft 330 kts 232°
2026-04-30 07:52 -34.12826 -55.01415 21596 ft 328 kts 232°
2026-04-30 07:52 -34.14306 -55.03507 21130 ft 327 kts 232°
2026-04-30 07:52 -34.15776 -55.05591 20665 ft 325 kts 232°
2026-04-30 07:52 -34.17237 -55.07666 20234 ft 323 kts 232°
2026-04-30 07:53 -34.18691 -55.09730 19797 ft 322 kts 232°
2026-04-30 07:53 -34.20136 -55.11784 19375 ft 320 kts 232°
2026-04-30 07:53 -34.21574 -55.13827 18938 ft 319 kts 232°
2026-04-30 07:53 -34.23010 -55.15860 18514 ft 317 kts 232°
2026-04-30 07:54 -34.24437 -55.17883 18023 ft 316 kts 232°
2026-04-30 07:54 -34.25841 -55.19876 17585 ft 315 kts 232°
2026-04-30 07:54 -34.27258 -55.21891 17144 ft 314 kts 232°
2026-04-30 07:54 -34.28672 -55.23901 16694 ft 314 kts 232°
2026-04-30 07:55 -34.30084 -55.25910 16223 ft 313 kts 232°
2026-04-30 07:55 -34.31493 -55.27915 15755 ft 313 kts 232°
2026-04-30 07:55 -34.32899 -55.29919 15281 ft 312 kts 232°
2026-04-30 07:55 -34.34300 -55.31924 14796 ft 312 kts 232°
2026-04-30 07:56 -34.35683 -55.33893 14258 ft 313 kts 231°
2026-04-30 07:56 -34.37135 -55.35867 13693 ft 315 kts 230°
2026-04-30 07:56 -34.38619 -55.37823 13101 ft 315 kts 230°
2026-04-30 07:56 -34.40106 -55.39764 12555 ft 314 kts 230°
2026-04-30 07:57 -34.41594 -55.41707 11969 ft 314 kts 230°
2026-04-30 07:57 -34.43077 -55.43650 11404 ft 314 kts 230°
2026-04-30 07:57 -34.44557 -55.45602 10837 ft 314 kts 230°
2026-04-30 07:57 -34.46008 -55.47523 10648 ft 302 kts 230°
2026-04-30 07:58 -34.47398 -55.49358 10531 ft 289 kts 230°
2026-04-30 07:58 -34.48732 -55.51120 10401 ft 278 kts 230°
2026-04-30 07:58 -34.50020 -55.52828 10163 ft 272 kts 230°
2026-04-30 07:58 -34.51289 -55.54515 9953 ft 270 kts 230°
2026-04-30 07:59 -34.52552 -55.56198 9835 ft 270 kts 230°
2026-04-30 07:59 -34.53813 -55.57882 9704 ft 269 kts 230°
2026-04-30 07:59 -34.55058 -55.59541 9401 ft 271 kts 230°
2026-04-30 08:00 -34.57604 -55.62933 8444 ft 272 kts 230°
2026-04-30 08:00 -34.58869 -55.64623 8081 ft 269 kts 230°
2026-04-30 08:00 -34.60119 -55.66292 7669 ft 265 kts 230°
2026-04-30 08:00 -34.61352 -55.67937 6972 ft 262 kts 230°
2026-04-30 08:01 -34.62573 -55.69569 6250 ft 260 kts 230°
2026-04-30 08:01 -34.63783 -55.71186 5468 ft 258 kts 230°
2026-04-30 08:01 -34.64983 -55.72789 4815 ft 255 kts 230°
2026-04-30 08:01 -34.66173 -55.74380 4226 ft 255 kts 230°
2026-04-30 08:02 -34.68232 -55.77556 4048 ft 224 kts 235°
2026-04-30 08:02 -34.69129 -55.79026 3993 ft 210 kts 235°
2026-04-30 08:03 -34.70802 -55.81755 3838 ft 197 kts 235°
2026-04-30 08:03 -34.72431 -55.84413 3521 ft 197 kts 234°
2026-04-30 08:03 -34.73251 -55.85752 3266 ft 197 kts 234°
2026-04-30 08:04 -34.74072 -55.87092 3007 ft 198 kts 234°
2026-04-30 08:04 -34.74900 -55.88444 2742 ft 200 kts 234°
2026-04-30 08:04 -34.75734 -55.89808 2471 ft 202 kts 233°
2026-04-30 08:04 -34.76560 -55.91158 2215 ft 194 kts 233°
2026-04-30 08:05 -34.77333 -55.92421 1950 ft 179 kts 233°
2026-04-30 08:05 -34.78050 -55.93595 1732 ft 167 kts 233°
2026-04-30 08:05 -34.78714 -55.94681 1503 ft 155 kts 234°
2026-04-30 08:05 -34.79334 -55.95695 1320 ft 142 kts 234°
2026-04-30 08:06 -34.79905 -55.96630 1116 ft 135 kts 234°
2026-04-30 08:06 -34.80455 -55.97531 926 ft 131 kts 234°
2026-04-30 08:06 -34.80997 -55.98419 747 ft 130 kts 234°
2026-04-30 08:06 -34.81534 -55.99299 570 ft 129 kts 234°
2026-04-30 08:07 -34.82068 -56.00175 391 ft 128 kts 233°
2026-04-30 08:07 -34.82599 -56.01044 224 ft 128 kts 233°
2026-04-30 08:07 -34.83119 -56.01916 98 ft 124 kts 233°
2026-04-30 08:07 -34.83679 -56.02866 358 ft 157 kts 234°
2026-04-30 08:08 -34.84326 -56.03949 1292 ft 157 kts 234°
2026-04-30 08:08 -34.85017 -56.05089 1996 ft 178 kts 234°
2026-04-30 08:08 -34.85769 -56.06343 2551 ft 188 kts 234°
2026-04-30 08:08 -34.86290 -56.07205 2888 ft 196 kts 234°
2026-04-30 08:09 -34.87404 -56.09035 2995 ft 206 kts 234°
2026-04-30 08:09 -34.88261 -56.10436 2999 ft 207 kts 234°
2026-04-30 08:09 -34.89120 -56.11840 3008 ft 207 kts 234°
2026-04-30 08:09 -34.90146 -56.13046 3016 ft 208 kts 208°
2026-04-30 08:10 -34.91556 -56.13406 3004 ft 210 kts 182°
2026-04-30 08:10 -34.92546 -56.13393 3012 ft 210 kts 179°
2026-04-30 08:10 -34.93987 -56.13315 3008 ft 210 kts 178°
2026-04-30 08:10 -34.95451 -56.13249 3002 ft 210 kts 184°
2026-04-30 08:11 -34.96827 -56.13759 2999 ft 208 kts 213°
2026-04-30 08:11 -34.97806 -56.15018 3001 ft 206 kts 243°
2026-04-30 08:11 -34.98135 -56.16698 2995 ft 205 kts 272°
2026-04-30 08:11 -34.97465 -56.18831 3001 ft 206 kts 311°
2026-04-30 08:12 -34.96731 -56.19560 3006 ft 206 kts 331°
2026-04-30 08:12 -34.95360 -56.19972 2999 ft 199 kts
2026-04-30 08:12 -34.94104 -56.19540 3007 ft 180 kts 29°
2026-04-30 08:12 -34.93223 -56.18549 2933 ft 169 kts 52°
2026-04-30 08:13 -34.92529 -56.17418 2758 ft 165 kts 52°
2026-04-30 08:13 -34.91849 -56.16305 2559 ft 163 kts 53°
2026-04-30 08:13 -34.91180 -56.15201 2360 ft 159 kts 53°
2026-04-30 08:13 -34.90538 -56.14139 2138 ft 152 kts 54°
2026-04-30 08:14 -34.89930 -56.13124 1950 ft 142 kts 54°
2026-04-30 08:14 -34.89358 -56.12178 1769 ft 136 kts 53°
2026-04-30 08:14 -34.88809 -56.11276 1577 ft 133 kts 53°
2026-04-30 08:14 -34.88262 -56.10371 1410 ft 132 kts 53°
2026-04-30 08:15 -34.87717 -56.09471 1233 ft 132 kts 53°
2026-04-30 08:15 -34.87174 -56.08578 1056 ft 131 kts 52°
2026-04-30 08:15 -34.86633 -56.07691 876 ft 130 kts 52°
2026-04-30 08:15 -34.86097 -56.06808 704 ft 129 kts 53°
2026-04-30 08:16 -34.85565 -56.05933 537 ft 128 kts 53°
2026-04-30 08:16 -34.85035 -56.05063 369 ft 128 kts 53°
2026-04-30 08:16 -34.84510 -56.04192 207 ft 127 kts 52°
2026-04-30 08:16 -34.83987 -56.03330 89 ft 124 kts 53°
2026-04-30 08:17 -34.83590 -56.02673 85 ft 56 kts 53°
2026-04-30 08:17 -34.83420 -56.02390 85 ft 40 kts 54°
2026-04-30 08:17 -34.83255 -56.02121 85 ft 40 kts 53°
2026-04-30 08:17 -34.83193 -56.01973 86 ft 5 kts 134°
2026-04-30 08:18 -34.83246 -56.01942 86 ft 12 kts 150°
2026-04-30 08:18 -34.83330 -56.01871 84 ft 17 kts 143°
2026-04-30 08:18 -34.83429 -56.01779 85 ft 11 kts 145°
2026-04-30 08:18 -34.83500 -56.01779 82 ft 11 kts 208°
2026-04-30 08:19 -34.83535 -56.01763 84 ft 3 kts 136°
2026-04-30 08:19 -34.83555 -56.01745 84 ft 5 kts 144°
2026-04-30 08:19 -34.83575 -56.01726 86 ft 0 kts 143°
2026-04-30 08:19 -34.83577 -56.01725 85 ft 0 kts 143°